FREGAT DEB, 45894

Orbit data source: Space-Track

FREGAT DEB, 45894 is space debris in LEO originally from a launch on Mon, 18 Jul 2011 UTC launched from the Tyuratam Missile And Space Complex (TTMTR). Debris objects in space refer to the collection of defunct objects orbiting the Earth. Examples of debris include non-operational satellites, rocket bodies, and fragments generated from explosions, collisions, or faulty payload assembly.

Loading next visibility...
Identifier
45894, 2011-037DP
Orbit
LEO
Country
Flag of CISCIS
Related business
Manufacturer
Lavochkin
Mission
Spacecraft
Bus & Motor
Unknown
Mass
Unknown
Launch date (UTC)
2011-07-18 (14 years ago)
Launch vehicle
Unknown
Launch site
Tyuratam Missile And Space Complex (TTMTR)
Object type
Payload
Rocket body
Debris
Shape & HBR
Unknown shape, 0.1 m
Radar Cross Section
Medium (>0.1 m² and <1 m²)

Expand to show TLE details & history
Last TLE update: 8 hours ago

TLE from 8 hours ago
0 FREGAT DEB
1 45894U 11037DP  25299.07776560  .00214514  00000-0  19355+0 0  9996
2 45894  50.5888  81.2688 0782712  56.4167 310.8948 12.91435820205011
Epoch: 2025-10-26T01:51Z
TLE epoch observation values (Epoch: 2025-10-26T01:51:58.947Z)
Latitude
-0.00004°
Longitude
18.57402°
Altitude
932.152 km
Speed
7.56 km/s
True Right ascension
05h 25m 04s
True Declination
0° 00' 00"
Sunlit
Object was in full shadow at epoch
Visualization orbit readout
Latitude
Unknown
Longitude
Unknown
Altitude
Unknown
Speed
Unknown
Apparent Right ascension
Unknown
Apparent Declination
Unknown
Sunlit
N/A
Visualization observer readout
Local Sidereal Time
05:11:45
Azimuth
Unknown
Elevation
Unknown
Doppler factor
Unknown
Orbital elements
Apogee altitude
1,897.14 km
Perigee altitude
695.743 km
Semi-major axis
7,674.578 km
Eccentricity
0.07827
Inclination
50.5888°
RAAN
81.2688°
Arg. of periapsis
56.4167°
True anomaly
303.67157°
Mean anomaly
310.8948°
Eccentric anomaly
307.32878°
Mean motion
3.22821 °/min
Orbital period
111.52 mins
BSTAR
0.19355
Loading maneuver chart data...
Computing Atmospheric mass density...
Loading historical data...
Loading historical data...
Loading historical data...
Loading historical data...
Loading historical data...
Loading historical data...
Loading historical data...

Documentation

Showing up to 5 results
|